Regional Weather Roundup
Issued by NWS

Home | Current Version | Previous Version | Text Only | Print | Product List | Glossary Off
Versions: 1 2 3 4 5 6 7 8 9 10 11 12 13 14 15 16 17 18 19 20 21 22 23 24 25 26 27 28 29 30 31 32 33 34 35 36 37 38 39 40 41 42 43 44 45 46 47 48 49 50

830
ASUS43 KBIS 290202
RWRND

NORTH DAKOTA REGIONAL WEATHER ROUNDUP
NATIONAL WEATHER SERVICE BISMARCK ND
900 PM CDT SAT MAY 28 2016

NOTE: "FAIR" INDICATES FEW OR NO CLOUDS BELOW 12,000 FEET WITH NO
SIGNIFICANT WEATHER AND/OR OBSTRUCTIONS TO VISIBILITY.


NDZ001>003-009>011-017-290300-
NORTHWEST NORTH DAKOTA

CITY           SKY/WX    TMP DP  RH WIND       PRES   REMARKS
WILLISTON      CLEAR     61  55  81 S3        29.93R
MINOT          CLOUDY    65  54  67 N8        29.90R
MINOT AFB      CLOUDY    63  54  73 NE8       29.89R
$$

NDZ018>021-031>035-040>046-290300-
SOUTHWEST NORTH DAKOTA

CITY           SKY/WX    TMP DP  RH WIND       PRES   REMARKS
BISMARCK       CLOUDY    60  56  86 S3        29.91R
DICKINSON      PTCLDY    60  54  80 N3        29.94R
GARRISON         N/A     61  58  90 CALM      29.91R
HETTINGER ARPT CLOUDY    60  52  74 N7        29.96R
$$

NDZ004>008-012>016-024-026-027-054-290300-
NORTHEAST NORTH DAKOTA

CITY           SKY/WX    TMP DP  RH WIND       PRES   REMARKS
GRAND FORKS    CLOUDY    62  59  90 N6        29.85R
GRND FRKS AFB  CLOUDY    61  61 100 NE7       29.86S
DEVILS LAKE    CLOUDY    63  58  83 NE14      29.89R
$$

NDZ022-023-025-028>030-036>039-047>053-290300-
SOUTHEAST NORTH DAKOTA

CITY           SKY/WX    TMP DP  RH WIND       PRES   REMARKS
FARGO          LGT RAIN  63  59  87 N7        29.83S FOG
JAMESTOWN      CLOUDY    67  55  65 NE3       29.86R
$$





USA.gov is the U.S. government's official web portal to all federal, state and local government web resources and services.